Regional Weather Roundup
Issued by NWS Newport/Morehead, NC

Current Version | Previous Version | Graphics & Text | Print | Product List | Glossary On
Versions: 1 2 3 4 5 6 7 8 9 10 11 12 13 14 15 16 17 18 19 20 21 22 23 24 25 26 27 28 29 30 31 32 33 34 35 36 37 38 39 40 41 42 43 44 45 46 47 48 49 50
000 ASUS42 KMHX 271725 RWRMHX WEATHER ROUNDUP FOR EASTERN NORTH CAROLINA NATIONAL WEATHER SERVICE NEWPORT/MOREHEAD CITY NC 100 PM EDT THU AUG 27 2015 NOTE: "FAIR" INDICATES FEW OR NO CLOUDS BELOW 12,000 FEET WITH NO SIGNIFICANT WEATHER AND/OR OBSTRUCTIONS TO VISIBILITY NCZ015>017-031-032-045>047-102-103-271800- NORTH COAST CITY SKY/WX TMP DP RH WIND PRES REMARKS EDENTON LGT RAIN 72 67 85 CALM 30.08F ELIZABETH CITY CLOUDY 78 64 61 NE18 30.09S KITTY HAWK CLOUDY 80 65 61 NE8G16 30.06F MANTEO CLOUDY 76 68 75 NE15 30.06F $$ NCZ045>047-081-094-103-104-271800- CENTRAL COAST CITY SKY/WX TMP DP RH WIND PRES REMARKS FRISCO CLOUDY 78 71 79 NE12G22 30.03F SWANQUARTER NOT AVBL $$ NCZ095-097-098-100-101-271800- SOUTHERN COAST CITY SKY/WX TMP DP RH WIND PRES REMARKS BEAUFORT CLOUDY 79 74 84 NE10G17 30.02S CEDAR ISLAND NOT AVBL JACKSONVILLE CLOUDY 77 70 79 NE10 30.03F PINEY ISLAND CLOUDY N/A N/A N/A NE18G29 30.03S WILMINGTON CLOUDY 80 72 76 N10 30.02F $$ NCZ011>013-027>030-043-044-078>080-089-090>093-098-271800- COASTAL PLAIN CITY SKY/WX TMP DP RH WIND PRES REMARKS AHOSKIE CLOUDY 75 60 58 N10G17 30.09F CLINTON CLOUDY 79 69 70 NE12G17 30.06S ELIZABETHTOWN PTSUNNY 79 67 67 N3 30.04S GOLDSBORO PTSUNNY 78 66 66 NE14G24 30.06S GREENVILLE CLOUDY 73 66 78 NE7 30.09S HAVELOCK CLOUDY 80 72 76 NE15 30.05S KENANSVILLE CLOUDY 76 66 71 NE5 30.07S KINSTON CLOUDY 77 66 69 NE14 30.07F NEW BERN CLOUDY 76 70 82 N8 30.06S RICHLANDS CLOUDY 75 66 73 N8 30.05S ROCKY MOUNT PTSUNNY 83 60 45 NE12G18 30.08F WASHINGTON CLOUDY 73 68 85 NE9 30.07R WHITEVILLE CLOUDY 76 69 80 NE6 30.03F $$ AMZ130-135-150-152-154-156-158-170-250-252-270-ANZ085-086-088-633-658-670-271800- MARINE OBSERVATIONS STATION/POSITION TIME TEMP WIND PRES WAVE SWELL AIR SEA DIR/SP/G HT/PER HT/PER (UTC) (F) (DEG/KT/KT) (MB) (FT/S) (FT/S) CHESAPEAKE LIGHT 1700 75 30/ 15/ 17 1019.7 64 E VA BEACH 1650 77 80 30/ 14/ 17 1018.2 5/10 3/10 DUCK 1600 77 79 40/ 19/ 21 1017.9 2 E DUCK 1611 78 N/A 5/ 5 2/12 OREGON INLET 1600 78 79 40/ 13/ 19 1018.0 13E OREGON INLT 1700 80 N/A 5/ 5 2/11 HATTERAS CG 1600 76 81 50/ 14/ 20 1016.8 DIAMOND BUOY 1650 78 82 60/ 17/ 19 1016.1 5/ 9 3/ 9 CAPE LOOKOUT 1700 80 40/ 19/ 21 1016.2 BEAUFORT LAB 1600 75 81 360/ 10/ 15 1016.4 30 SE NEW RVR IN NOT AVBL 30 SE NEW RVR IN 1625 82 N/A 3/10 2/11 27 SE WRIGHTSVLE 1700 77 82 80/ 12/ 14 N/A 5 SE WRIGHTSVLE 1608 78 83 60/ 14/ 19 1016.6 225 S CAPE HAT 1650 78 84 40/ 10/ 14 1016.6 3/10 3/10 41 SE CHARLESTON 1650 82 84 100/ 2/ 4 1015.2 4/10 3/10 $$

USA.gov is the U.S. government's official web portal to all federal, state and local government web resources and services.